Location: Boulin
(43.2500°N, 0.1333°E)
Time: 23:13:37
(UTC+00:00)

Cosmos 2227 Rocket - Visible Passes

Search period start: 12 March 2026 00:00
Search period end: 22 March 2026 00:00
Orbit: 836 x 845 km, 71.0° (Epoch: 12 March)

Date Brightness Start Highest point End Pass type
(mag) Time Alt. Az. Time Alt. Az. Time Alt. Az.
12 Mar 4.7 20:54:36 10° NNE 20:54:36 10° NNE 20:54:36 10° NNE visible
12 Mar 4.9 22:35:49 10° NNW 22:36:24 13° NNW 22:36:24 13° NNW visible
13 Mar 4.7 22:20:28 10° NNW 22:21:29 15° NNW 22:21:29 15° NNW visible
14 Mar 4.5 22:05:08 10° NNW 22:06:34 18° N 22:06:34 18° N visible
15 Mar 4.3 21:49:49 10° NNW 21:51:41 21° N 21:51:41 21° N visible
16 Mar 4.0 21:34:29 10° NNW 21:36:50 24° N 21:36:50 24° N visible
17 Mar 3.8 21:19:10 10° NNW 21:21:59 27° N 21:21:59 27° N visible
17 Mar 5.0 23:03:28 10° NW 23:03:47 11° NW 23:03:47 11° NW visible
18 Mar 3.5 21:03:50 10° NNW 21:07:11 30° NNE 21:07:11 30° NNE visible
18 Mar 4.8 22:48:03 10° NW 22:48:59 14° NW 22:48:59 14° NW visible
19 Mar 3.3 20:48:31 10° N 20:52:24 32° NNE 20:52:24 32° NNE visible
19 Mar 4.6 22:32:38 10° NW 22:34:12 18° NW 22:34:12 18° NW visible
20 Mar 3.1 20:33:11 10° N 20:37:39 34° NE 20:37:39 34° NE visible
20 Mar 4.3 22:17:14 10° NW 22:19:27 22° NW 22:19:27 22° NW visible
21 Mar 3.0 20:17:53 10° N 20:22:56 33° NE 20:22:56 33° NE visible
21 Mar 4.0 22:01:50 10° NW 22:04:45 27° WNW 22:04:45 27° WNW visible
